Year,Month,Day,Hour,Minute,Value (Times are PST for temperature in C)
2021,04,17,00,00,13.20
2021,04,17,00,01,13.20
2021,04,17,00,02,13.10
2021,04,17,00,03,13.10
2021,04,17,00,04,13.00
2021,04,17,00,05,13.00
2021,04,17,00,06,13.00
2021,04,17,00,07,13.00
2021,04,17,00,08,13.00
2021,04,17,00,09,13.00
2021,04,17,00,10,13.00
2021,04,17,00,11,13.00
2021,04,17,00,12,13.00
2021,04,17,00,13,13.10
2021,04,17,00,14,13.10
2021,04,17,00,15,13.10
2021,04,17,00,16,13.10
2021,04,17,00,17,13.10
2021,04,17,00,18,13.10
2021,04,17,00,19,13.10
2021,04,17,00,20,13.10
2021,04,17,00,21,13.00
2021,04,17,00,22,13.00
2021,04,17,00,23,12.90
2021,04,17,00,24,12.90
2021,04,17,00,25,12.90
2021,04,17,00,26,12.90
2021,04,17,00,27,12.80
2021,04,17,00,28,12.80
2021,04,17,00,29,12.80
2021,04,17,00,30,12.70
2021,04,17,00,31,12.70
2021,04,17,00,32,12.70
2021,04,17,00,33,12.60
2021,04,17,00,34,12.60
2021,04,17,00,35,12.50
2021,04,17,00,36,12.40
2021,04,17,00,37,12.40
2021,04,17,00,38,12.30
2021,04,17,00,39,12.30
2021,04,17,00,40,12.20
2021,04,17,00,41,12.20
2021,04,17,00,42,12.10
2021,04,17,00,43,12.10
2021,04,17,00,44,12.00
2021,04,17,00,45,12.00
2021,04,17,00,46,11.90
2021,04,17,00,47,11.90
2021,04,17,00,48,11.90
2021,04,17,00,49,11.80
2021,04,17,00,50,11.80
2021,04,17,00,51,11.80
2021,04,17,00,52,11.70
2021,04,17,00,53,11.70
2021,04,17,00,54,11.70
2021,04,17,00,55,11.60
2021,04,17,00,56,11.60
2021,04,17,00,57,11.60
2021,04,17,00,58,11.50
2021,04,17,00,59,11.50
2021,04,17,01,00,11.50
2021,04,17,01,01,11.40
2021,04,17,01,02,11.40
2021,04,17,01,03,11.40
2021,04,17,01,04,11.30
2021,04,17,01,05,11.30
2021,04,17,01,06,11.30
2021,04,17,01,07,11.30
2021,04,17,01,08,11.30
2021,04,17,01,09,11.30
2021,04,17,01,10,11.30
2021,04,17,01,11,11.30
2021,04,17,01,12,11.40
2021,04,17,01,13,11.40
2021,04,17,01,14,11.40
2021,04,17,01,15,11.50
2021,04,17,01,16,11.50
2021,04,17,01,17,11.50
2021,04,17,01,18,11.60
2021,04,17,01,19,11.60
2021,04,17,01,20,11.60
2021,04,17,01,21,11.60
2021,04,17,01,22,11.60
2021,04,17,01,23,11.50
2021,04,17,01,24,11.50
2021,04,17,01,25,11.50
2021,04,17,01,26,11.50
2021,04,17,01,27,11.50
2021,04,17,01,28,11.60
2021,04,17,01,29,11.60
2021,04,17,01,30,11.60
2021,04,17,01,31,11.60
2021,04,17,01,32,11.60
2021,04,17,01,33,11.60
2021,04,17,01,34,11.60
2021,04,17,01,35,11.60
2021,04,17,01,36,11.50
2021,04,17,01,37,11.50
2021,04,17,01,38,11.50
2021,04,17,01,39,11.40
2021,04,17,01,40,11.40
2021,04,17,01,41,11.40
2021,04,17,01,42,11.40
2021,04,17,01,43,11.30
2021,04,17,01,44,11.30
2021,04,17,01,45,11.30
2021,04,17,01,46,11.30
2021,04,17,01,47,11.30
2021,04,17,01,48,11.30
2021,04,17,01,49,11.30
2021,04,17,01,50,11.30
2021,04,17,01,51,11.40
2021,04,17,01,52,11.50
2021,04,17,01,53,11.50
2021,04,17,01,54,11.60
2021,04,17,01,55,11.70
2021,04,17,01,56,11.70
2021,04,17,01,57,11.80
2021,04,17,01,58,11.80
2021,04,17,01,59,11.80
2021,04,17,02,00,11.90
2021,04,17,02,01,11.90
2021,04,17,02,02,11.90
2021,04,17,02,03,11.90
2021,04,17,02,04,11.90
2021,04,17,02,05,11.90
2021,04,17,02,06,11.80
2021,04,17,02,07,11.80
2021,04,17,02,08,11.80
2021,04,17,02,09,11.80
2021,04,17,02,10,11.80
2021,04,17,02,11,11.80
2021,04,17,02,12,11.70
2021,04,17,02,13,11.70
2021,04,17,02,14,11.70
2021,04,17,02,15,11.70
2021,04,17,02,16,11.60
2021,04,17,02,17,11.60
2021,04,17,02,18,11.60
2021,04,17,02,19,11.60
2021,04,17,02,20,11.60
2021,04,17,02,21,11.60
2021,04,17,02,22,11.70
2021,04,17,02,23,11.70
2021,04,17,02,24,11.70
2021,04,17,02,25,11.70
2021,04,17,02,26,11.70
2021,04,17,02,27,11.70
2021,04,17,02,28,11.60
2021,04,17,02,29,11.60
2021,04,17,02,30,11.50
2021,04,17,02,31,11.50
2021,04,17,02,32,11.40
2021,04,17,02,33,11.30
2021,04,17,02,34,11.20
2021,04,17,02,35,11.20
2021,04,17,02,36,11.10
2021,04,17,02,37,11.00
2021,04,17,02,38,10.90
2021,04,17,02,39,10.90
2021,04,17,02,40,10.80
2021,04,17,02,41,10.70
2021,04,17,02,42,10.70
2021,04,17,02,43,10.60
2021,04,17,02,44,10.50
2021,04,17,02,45,10.50
2021,04,17,02,46,10.40
2021,04,17,02,47,10.40
2021,04,17,02,48,10.30
2021,04,17,02,49,10.30
2021,04,17,02,50,10.30
2021,04,17,02,51,10.30
2021,04,17,02,52,10.30
2021,04,17,02,53,10.40
2021,04,17,02,54,10.40
2021,04,17,02,55,10.40
2021,04,17,02,56,10.50
2021,04,17,02,57,10.60
2021,04,17,02,58,10.60
2021,04,17,02,59,10.70
2021,04,17,03,00,10.70
2021,04,17,03,01,10.80
2021,04,17,03,02,10.80
2021,04,17,03,03,10.80
2021,04,17,03,04,10.80
2021,04,17,03,05,10.80
2021,04,17,03,06,10.90
2021,04,17,03,07,10.90
2021,04,17,03,08,10.90
2021,04,17,03,09,10.90
2021,04,17,03,10,10.90
2021,04,17,03,11,10.90
2021,04,17,03,12,10.90
2021,04,17,03,13,10.90
2021,04,17,03,14,11.00
2021,04,17,03,15,11.00
2021,04,17,03,16,11.00
2021,04,17,03,17,11.00
2021,04,17,03,18,11.00
2021,04,17,03,19,10.90
2021,04,17,03,20,10.90
2021,04,17,03,21,10.80
2021,04,17,03,22,10.80
2021,04,17,03,23,10.70
2021,04,17,03,24,10.70
2021,04,17,03,25,10.60
2021,04,17,03,26,10.60
2021,04,17,03,27,10.50
2021,04,17,03,28,10.50
2021,04,17,03,29,10.40
2021,04,17,03,30,10.40
2021,04,17,03,31,10.40
2021,04,17,03,32,10.30
2021,04,17,03,33,10.30
2021,04,17,03,34,10.30
2021,04,17,03,35,10.30
2021,04,17,03,36,10.30
2021,04,17,03,37,10.20
2021,04,17,03,38,10.20
2021,04,17,03,39,10.20
2021,04,17,03,40,10.20
2021,04,17,03,41,10.20
2021,04,17,03,42,10.10
2021,04,17,03,43,10.10
2021,04,17,03,44,10.10
2021,04,17,03,45,10.10
2021,04,17,03,46,10.10
2021,04,17,03,47,10.20
2021,04,17,03,48,10.20
2021,04,17,03,49,10.20
2021,04,17,03,50,10.20
2021,04,17,03,51,10.30
2021,04,17,03,52,10.30
2021,04,17,03,53,10.40
2021,04,17,03,54,10.40
2021,04,17,03,55,10.40
2021,04,17,03,56,10.40
2021,04,17,03,57,10.40
2021,04,17,03,58,10.40
2021,04,17,03,59,10.40
2021,04,17,04,00,10.40
2021,04,17,04,01,10.40
2021,04,17,04,02,10.40
2021,04,17,04,03,10.40
2021,04,17,04,04,10.50
2021,04,17,04,05,10.50
2021,04,17,04,06,10.60
2021,04,17,04,07,10.60
2021,04,17,04,08,10.70
2021,04,17,04,09,10.70
2021,04,17,05,04,12.30
2021,04,17,05,05,12.30
2021,04,17,05,06,12.20
2021,04,17,05,07,12.10
2021,04,17,05,08,12.00
2021,04,17,05,09,11.90
2021,04,17,05,10,11.80
2021,04,17,05,11,11.70
2021,04,17,05,12,11.50
2021,04,17,05,13,11.40
2021,04,17,05,14,11.30
2021,04,17,05,15,11.20
2021,04,17,05,16,11.10
2021,04,17,05,17,11.00
2021,04,17,05,18,10.90
2021,04,17,05,19,10.80
2021,04,17,05,20,10.80
2021,04,17,05,21,10.70
2021,04,17,05,22,10.70
2021,04,17,05,23,10.70
2021,04,17,05,24,10.70
2021,04,17,05,25,10.70
2021,04,17,05,26,10.70
2021,04,17,05,27,10.80
2021,04,17,05,28,10.90
2021,04,17,05,29,10.90
2021,04,17,05,30,11.00
2021,04,17,05,31,11.10
2021,04,17,05,32,11.10
2021,04,17,05,33,11.20
2021,04,17,05,34,11.30
2021,04,17,05,35,11.30
2021,04,17,05,36,11.40
2021,04,17,05,37,11.40
2021,04,17,05,38,11.50
2021,04,17,05,39,11.50
2021,04,17,05,40,11.60
2021,04,17,05,41,11.60
2021,04,17,05,42,11.70
2021,04,17,05,43,11.70
2021,04,17,05,44,11.70
2021,04,17,05,45,11.80
2021,04,17,05,46,11.80
2021,04,17,05,47,11.80
2021,04,17,05,48,11.80
2021,04,17,05,49,11.90
2021,04,17,05,50,11.90
2021,04,17,05,51,11.90
2021,04,17,05,52,11.90
2021,04,17,05,53,12.00
2021,04,17,05,54,12.00
2021,04,17,05,55,12.00
2021,04,17,05,56,12.00
2021,04,17,05,57,12.00
2021,04,17,05,58,12.00
2021,04,17,05,59,12.00
2021,04,17,06,00,12.00
2021,04,17,06,01,12.00
2021,04,17,06,02,12.00
2021,04,17,06,03,12.00
2021,04,17,06,04,12.00
2021,04,17,06,05,12.00
2021,04,17,06,06,12.00
2021,04,17,06,07,12.00
2021,04,17,06,08,12.00
2021,04,17,06,09,12.00
2021,04,17,06,10,11.90
2021,04,17,06,11,11.90
2021,04,17,06,12,11.90
2021,04,17,06,13,11.90
2021,04,17,06,14,11.80
2021,04,17,06,15,11.80
2021,04,17,06,16,11.70
2021,04,17,06,17,11.70
2021,04,17,06,18,11.60
2021,04,17,06,19,11.60
2021,04,17,06,20,11.50
2021,04,17,06,21,11.50
2021,04,17,06,22,11.40
2021,04,17,06,23,11.40
2021,04,17,06,24,11.30
2021,04,17,06,25,11.30
2021,04,17,06,26,11.20
2021,04,17,06,27,11.20
2021,04,17,06,28,11.20
2021,04,17,06,29,11.10
2021,04,17,06,30,11.10
2021,04,17,06,31,11.10
2021,04,17,06,32,11.10
2021,04,17,06,33,11.10
2021,04,17,06,34,11.10
2021,04,17,06,35,11.20
2021,04,17,06,36,11.20
2021,04,17,06,37,11.20
2021,04,17,06,38,11.30
2021,04,17,06,39,11.30
2021,04,17,06,40,11.30
2021,04,17,06,41,11.30
2021,04,17,06,42,11.40
2021,04,17,06,43,11.40
2021,04,17,06,44,11.40
2021,04,17,06,45,11.50
2021,04,17,06,46,11.50
2021,04,17,06,47,11.60
2021,04,17,06,48,11.70
2021,04,17,06,49,11.70
2021,04,17,06,50,11.80
2021,04,17,06,51,11.80
2021,04,17,06,52,11.80
2021,04,17,06,53,11.90
2021,04,17,06,54,11.90
2021,04,17,06,55,11.90
2021,04,17,06,56,11.90
2021,04,17,06,57,11.90
2021,04,17,06,58,11.90
2021,04,17,06,59,11.90
2021,04,17,07,00,11.90
2021,04,17,07,01,11.90
2021,04,17,07,02,11.90
2021,04,17,07,03,11.90
2021,04,17,07,04,11.90
2021,04,17,07,05,11.90
2021,04,17,07,06,11.90
2021,04,17,07,07,11.90
2021,04,17,07,08,11.90
2021,04,17,07,09,11.90
2021,04,17,07,10,11.90
2021,04,17,07,11,11.90
2021,04,17,07,12,11.90
2021,04,17,07,13,11.90
2021,04,17,07,14,11.90
2021,04,17,07,15,11.90
2021,04,17,07,16,11.90
2021,04,17,07,17,11.90
2021,04,17,07,18,11.90
2021,04,17,07,19,11.90
2021,04,17,07,20,11.90
2021,04,17,07,21,11.90
2021,04,17,07,22,11.90
2021,04,17,07,23,11.90
2021,04,17,07,24,11.90
2021,04,17,07,25,11.90
2021,04,17,07,26,12.00
2021,04,17,07,27,12.00
2021,04,17,07,28,12.00
2021,04,17,07,29,12.10
2021,04,17,07,30,12.10
2021,04,17,07,31,12.10
2021,04,17,07,32,12.20
2021,04,17,07,33,12.20
2021,04,17,07,34,12.30
2021,04,17,07,35,12.40
2021,04,17,07,36,12.40
2021,04,17,07,37,12.50
2021,04,17,07,38,12.60
2021,04,17,07,39,12.60
2021,04,17,07,40,12.70
2021,04,17,07,41,12.80
2021,04,17,07,42,12.90
2021,04,17,07,43,12.90
2021,04,17,07,44,13.00
2021,04,17,07,45,13.10
2021,04,17,07,46,13.20
2021,04,17,07,47,13.20
2021,04,17,07,48,13.30
2021,04,17,07,49,13.40
2021,04,17,07,50,13.40
2021,04,17,07,51,13.50
2021,04,17,07,52,13.60
2021,04,17,07,53,13.60
2021,04,17,07,54,13.70
2021,04,17,07,55,13.70
2021,04,17,07,56,13.70
2021,04,17,07,57,13.80
2021,04,17,07,58,13.80
2021,04,17,07,59,13.80
2021,04,17,08,00,13.80
2021,04,17,08,01,13.80
2021,04,17,08,02,13.90
2021,04,17,08,03,13.90
2021,04,17,08,04,13.90
2021,04,17,08,05,13.90
2021,04,17,08,06,14.00
2021,04,17,08,07,14.00
2021,04,17,08,08,14.00
2021,04,17,08,09,14.10
2021,04,17,08,10,14.10
2021,04,17,08,11,14.20
2021,04,17,08,12,14.20
2021,04,17,08,13,14.30
2021,04,17,08,14,14.30
2021,04,17,08,15,14.40
2021,04,17,08,16,14.40
2021,04,17,08,17,14.50
2021,04,17,08,18,14.60
2021,04,17,08,19,14.60
2021,04,17,08,20,14.70
2021,04,17,08,21,14.70
2021,04,17,08,22,14.70
2021,04,17,08,23,14.80
2021,04,17,08,24,14.80
2021,04,17,08,25,14.90
2021,04,17,08,26,14.90
2021,04,17,08,27,15.00
2021,04,17,08,28,15.10
2021,04,17,08,29,15.10
2021,04,17,08,30,15.10
2021,04,17,08,31,15.20
2021,04,17,08,32,15.20
2021,04,17,08,33,15.20
2021,04,17,08,34,15.30
2021,04,17,08,35,15.30
2021,04,17,08,36,15.40
2021,04,17,08,37,15.40
2021,04,17,08,38,15.50
2021,04,17,08,39,15.50
2021,04,17,08,40,15.60
2021,04,17,08,41,15.60
2021,04,17,08,42,15.60
2021,04,17,08,43,15.60
2021,04,17,08,44,15.70
2021,04,17,08,45,15.70
2021,04,17,08,46,15.70
2021,04,17,08,47,15.80
2021,04,17,08,48,15.80
2021,04,17,08,49,15.80
2021,04,17,08,50,15.80
2021,04,17,08,51,15.80
2021,04,17,08,52,15.90
2021,04,17,08,53,15.90
2021,04,17,08,54,16.00
2021,04,17,08,55,16.10
2021,04,17,08,56,16.10
2021,04,17,08,57,16.20
2021,04,17,08,58,16.20
2021,04,17,08,59,16.20
2021,04,17,09,00,16.30
2021,04,17,09,01,16.30
2021,04,17,09,02,16.40
2021,04,17,09,03,16.40
2021,04,17,09,04,16.50
2021,04,17,09,05,16.50
2021,04,17,09,06,16.60
2021,04,17,09,07,16.60
2021,04,17,09,08,16.60
2021,04,17,09,09,16.60
2021,04,17,09,10,16.70
2021,04,17,09,11,16.70
2021,04,17,09,12,16.70
2021,04,17,09,13,16.80
2021,04,17,09,14,16.80
2021,04,17,09,15,16.80
2021,04,17,09,16,16.90
2021,04,17,09,17,16.90
2021,04,17,09,18,17.00
2021,04,17,09,19,17.00
2021,04,17,09,20,17.10
2021,04,17,09,21,17.20
2021,04,17,09,22,17.20
2021,04,17,09,23,17.20
2021,04,17,09,24,17.20
2021,04,17,09,25,17.30
2021,04,17,09,26,17.30
2021,04,17,09,27,17.20
2021,04,17,09,28,17.20
2021,04,17,09,29,17.20
2021,04,17,09,30,17.30
2021,04,17,09,31,17.30
2021,04,17,09,32,17.30
2021,04,17,09,33,17.30
2021,04,17,09,34,17.30
2021,04,17,09,35,17.30
2021,04,17,09,36,17.20
2021,04,17,09,37,17.20
2021,04,17,09,38,17.20
2021,04,17,09,39,17.20
2021,04,17,09,40,17.20
2021,04,17,09,41,17.20
2021,04,17,09,42,17.10
2021,04,17,09,43,17.10
2021,04,17,09,44,17.10
2021,04,17,09,45,17.10
2021,04,17,09,46,17.10
2021,04,17,09,47,17.20
2021,04,17,09,48,17.20
2021,04,17,09,49,17.30
2021,04,17,09,50,17.30
2021,04,17,09,51,17.30
2021,04,17,09,52,17.40
2021,04,17,09,53,17.40
2021,04,17,09,54,17.40
2021,04,17,09,55,17.40
2021,04,17,09,56,17.50
2021,04,17,09,57,17.50
2021,04,17,09,58,17.60
2021,04,17,09,59,17.60
2021,04,17,10,00,17.70
2021,04,17,10,01,17.70
2021,04,17,10,02,17.80
2021,04,17,10,03,17.90
2021,04,17,10,04,18.00
2021,04,17,10,05,18.10
2021,04,17,10,06,18.10
2021,04,17,10,07,18.10
2021,04,17,10,08,18.20
2021,04,17,10,09,18.20
2021,04,17,10,10,18.30
2021,04,17,10,11,18.30
2021,04,17,10,12,18.30
2021,04,17,10,13,18.30
2021,04,17,10,14,18.30
2021,04,17,10,15,18.30
2021,04,17,10,16,18.30
2021,04,17,10,17,18.30
2021,04,17,10,18,18.30
2021,04,17,10,19,18.30
2021,04,17,10,20,18.30
2021,04,17,10,21,18.20
2021,04,17,10,22,18.20
2021,04,17,10,23,18.20
2021,04,17,10,24,18.20
2021,04,17,10,25,18.20
2021,04,17,10,26,18.20
2021,04,17,10,27,18.30
2021,04,17,10,28,18.30
2021,04,17,10,29,18.30
2021,04,17,10,30,18.30
2021,04,17,10,31,18.40
2021,04,17,10,32,18.40
2021,04,17,10,33,18.40
2021,04,17,10,34,18.40
2021,04,17,10,35,18.50
2021,04,17,10,36,18.50
2021,04,17,10,37,18.60
2021,04,17,10,38,18.70
2021,04,17,10,39,18.80
2021,04,17,10,40,18.80
2021,04,17,10,41,18.90
2021,04,17,10,42,18.90
2021,04,17,10,43,18.90
2021,04,17,10,44,18.90
2021,04,17,10,45,19.00
2021,04,17,10,46,19.00
2021,04,17,10,47,18.90
2021,04,17,10,48,18.90
2021,04,17,10,49,18.90
2021,04,17,10,50,18.90
2021,04,17,10,51,19.00
2021,04,17,10,52,19.10
2021,04,17,10,53,19.10
2021,04,17,10,54,19.20
2021,04,17,10,55,19.30
2021,04,17,10,56,19.30
2021,04,17,10,57,19.40
2021,04,17,10,58,19.40
2021,04,17,10,59,19.50
2021,04,17,11,00,19.60
2021,04,17,11,01,19.60
2021,04,17,11,02,19.70
2021,04,17,11,03,19.80
2021,04,17,11,04,19.90
2021,04,17,11,05,19.90
2021,04,17,11,06,20.00
2021,04,17,11,07,20.00
2021,04,17,11,08,19.90
2021,04,17,11,09,19.80
2021,04,17,11,10,19.70
2021,04,17,11,11,19.60
2021,04,17,11,12,19.50
2021,04,17,11,13,19.50
2021,04,17,11,14,19.50
2021,04,17,11,15,19.50
2021,04,17,11,16,19.60
2021,04,17,11,17,19.60
2021,04,17,11,18,19.60
2021,04,17,11,19,19.60
2021,04,17,11,20,19.60
2021,04,17,11,21,19.50
2021,04,17,11,22,19.40
2021,04,17,11,23,19.30
2021,04,17,11,24,19.20
2021,04,17,11,25,19.10
2021,04,17,11,26,19.10
2021,04,17,11,27,19.10
2021,04,17,11,28,19.10
2021,04,17,11,29,19.10
2021,04,17,11,30,19.00
2021,04,17,11,31,18.90
2021,04,17,11,32,18.90
2021,04,17,11,33,19.00
2021,04,17,11,34,19.00
2021,04,17,11,35,19.10
2021,04,17,11,36,19.20
2021,04,17,11,37,19.30
2021,04,17,11,38,19.40
2021,04,17,11,39,19.40
2021,04,17,11,40,19.40
2021,04,17,11,41,19.30
2021,04,17,11,42,19.30
2021,04,17,11,43,19.30
2021,04,17,11,44,19.30
2021,04,17,11,45,19.40
2021,04,17,11,46,19.40
2021,04,17,11,47,19.40
2021,04,17,11,48,19.50
2021,04,17,11,49,19.50
2021,04,17,11,50,19.60
2021,04,17,11,51,19.70
2021,04,17,11,52,19.80
2021,04,17,11,53,19.90
2021,04,17,11,54,20.00
2021,04,17,11,55,20.20
2021,04,17,11,56,20.30
2021,04,17,11,57,20.40
2021,04,17,11,58,20.50
2021,04,17,11,59,20.50
2021,04,17,12,00,20.60
2021,04,17,12,01,20.60
2021,04,17,12,02,20.70
2021,04,17,12,03,20.80
2021,04,17,12,04,20.80
2021,04,17,12,05,20.90
2021,04,17,12,06,20.90
2021,04,17,12,07,21.00
2021,04,17,12,08,21.00
2021,04,17,12,09,21.10
2021,04,17,12,10,21.20
2021,04,17,12,11,21.20
2021,04,17,12,12,21.30
2021,04,17,12,13,21.30
2021,04,17,12,14,21.30
2021,04,17,12,15,21.20
2021,04,17,12,16,21.10
2021,04,17,12,17,21.00
2021,04,17,12,18,20.90
2021,04,17,12,19,20.80
2021,04,17,12,20,20.70
2021,04,17,12,21,20.70
2021,04,17,12,22,20.70
2021,04,17,12,23,20.70
2021,04,17,12,24,20.80
2021,04,17,12,25,20.90
2021,04,17,12,26,21.00
2021,04,17,12,27,21.10
2021,04,17,12,28,21.20
2021,04,17,12,29,21.20
2021,04,17,12,30,21.20
2021,04,17,12,31,21.20
2021,04,17,12,32,21.20
2021,04,17,12,33,21.30
2021,04,17,12,34,21.40
2021,04,17,12,35,21.40
2021,04,17,12,36,21.40
2021,04,17,12,37,21.30
2021,04,17,12,38,21.30
2021,04,17,12,39,21.40
2021,04,17,12,40,21.40
2021,04,17,12,41,21.30
2021,04,17,12,42,21.20
2021,04,17,12,43,21.20
2021,04,17,12,44,21.10
2021,04,17,12,45,21.10
2021,04,17,12,46,21.10
2021,04,17,12,47,21.10
2021,04,17,12,48,21.10
2021,04,17,12,49,21.20
2021,04,17,12,50,21.30
2021,04,17,12,51,21.30
2021,04,17,12,52,21.40
2021,04,17,12,53,21.50
2021,04,17,12,54,21.50
2021,04,17,12,55,21.60
2021,04,17,12,56,21.80
2021,04,17,12,57,21.80
2021,04,17,12,58,21.90
2021,04,17,12,59,21.90
2021,04,17,13,00,22.00
2021,04,17,13,01,22.00
2021,04,17,13,02,22.10
2021,04,17,13,03,22.10
2021,04,17,13,04,22.10
2021,04,17,13,05,22.10
2021,04,17,13,06,22.10
2021,04,17,13,07,22.00
2021,04,17,13,08,21.90
2021,04,17,13,09,21.90
2021,04,17,13,10,21.90
2021,04,17,13,11,21.90
2021,04,17,13,12,21.90
2021,04,17,13,13,21.90
2021,04,17,13,14,21.90
2021,04,17,13,15,22.00
2021,04,17,13,16,21.90
2021,04,17,13,17,21.90
2021,04,17,13,18,21.80
2021,04,17,13,19,21.80
2021,04,17,13,20,21.80
2021,04,17,13,21,21.80
2021,04,17,13,22,21.80
2021,04,17,13,23,21.80
2021,04,17,13,24,21.70
2021,04,17,13,25,21.70
2021,04,17,13,26,21.70
2021,04,17,13,27,21.70
2021,04,17,13,28,21.80
2021,04,17,13,29,21.90
2021,04,17,13,30,22.00
2021,04,17,13,31,22.10
2021,04,17,13,32,22.20
2021,04,17,13,33,22.30
2021,04,17,13,34,22.40
2021,04,17,13,35,22.50
2021,04,17,13,36,22.60
2021,04,17,13,37,22.70
2021,04,17,13,38,22.70
2021,04,17,13,39,22.80
2021,04,17,13,40,22.80
2021,04,17,13,41,22.80
2021,04,17,13,42,22.80
2021,04,17,13,43,22.80
2021,04,17,13,44,22.80
2021,04,17,13,45,22.70
2021,04,17,13,46,22.70
2021,04,17,13,47,22.80
2021,04,17,13,48,22.80
2021,04,17,13,49,22.90
2021,04,17,13,50,22.90
2021,04,17,13,51,22.90
2021,04,17,13,52,22.90
2021,04,17,13,53,22.90
2021,04,17,13,54,22.80
2021,04,17,13,55,22.80
2021,04,17,13,56,22.80
2021,04,17,13,57,22.80
2021,04,17,13,58,22.80
2021,04,17,13,59,22.80
2021,04,17,14,00,22.80
2021,04,17,14,01,22.80
2021,04,17,14,02,22.80
2021,04,17,14,03,22.80
2021,04,17,14,04,22.80
2021,04,17,14,05,22.80
2021,04,17,14,06,22.80
2021,04,17,14,07,22.80
2021,04,17,14,08,22.80
2021,04,17,14,09,22.80
2021,04,17,14,10,22.80
2021,04,17,14,11,22.80
2021,04,17,14,12,22.80
2021,04,17,14,13,22.80
2021,04,17,14,14,22.80
2021,04,17,14,15,22.80
2021,04,17,14,16,22.80
2021,04,17,14,17,22.80
2021,04,17,14,18,22.80
2021,04,17,14,19,22.90
2021,04,17,14,20,22.90
2021,04,17,14,21,22.90
2021,04,17,14,22,23.00
2021,04,17,14,23,23.00
2021,04,17,14,24,23.00
2021,04,17,14,25,23.00
2021,04,17,14,26,22.90
2021,04,17,14,27,22.80
2021,04,17,14,28,22.80
2021,04,17,14,29,22.80
2021,04,17,14,30,22.80
2021,04,17,14,31,22.80
2021,04,17,14,32,22.80
2021,04,17,14,33,22.90
2021,04,17,14,34,22.90
2021,04,17,14,35,22.90
2021,04,17,14,36,22.90
2021,04,17,14,37,22.90
2021,04,17,14,38,22.90
2021,04,17,14,39,22.90
2021,04,17,14,40,22.90
2021,04,17,14,41,22.90
2021,04,17,14,42,22.90
2021,04,17,14,43,22.90
2021,04,17,14,44,23.00
2021,04,17,14,45,23.00
2021,04,17,14,46,23.10
2021,04,17,14,47,23.20
2021,04,17,14,48,23.20
2021,04,17,14,49,23.30
2021,04,17,14,50,23.30
2021,04,17,14,51,23.30
2021,04,17,14,52,23.30
2021,04,17,14,53,23.30
2021,04,17,14,54,23.30
2021,04,17,14,55,23.20
2021,04,17,14,56,23.20
2021,04,17,14,57,23.10
2021,04,17,14,58,23.10
2021,04,17,14,59,23.10
2021,04,17,15,00,23.10
2021,04,17,15,01,23.10
2021,04,17,15,02,23.10
2021,04,17,15,03,23.10
2021,04,17,15,04,23.10
2021,04,17,15,05,23.00
2021,04,17,15,06,22.90
2021,04,17,15,07,22.90
2021,04,17,15,08,22.90
2021,04,17,15,09,22.90
2021,04,17,15,10,23.00
2021,04,17,15,11,23.10
2021,04,17,15,12,23.20
2021,04,17,15,13,23.30
2021,04,17,15,14,23.30
2021,04,17,15,15,23.30
2021,04,17,15,16,23.40
2021,04,17,15,17,23.50
2021,04,17,15,18,23.50
2021,04,17,15,19,23.60
2021,04,17,15,20,23.60
2021,04,17,15,21,23.70
2021,04,17,15,22,23.70
2021,04,17,15,23,23.70
2021,04,17,15,24,23.80
2021,04,17,15,25,23.80
2021,04,17,15,26,23.80
2021,04,17,15,27,23.70
2021,04,17,15,28,23.70
2021,04,17,15,29,23.80
2021,04,17,15,30,23.80
2021,04,17,15,31,23.70
2021,04,17,15,32,23.70
2021,04,17,15,33,23.70
2021,04,17,15,34,23.70
2021,04,17,15,35,23.70
2021,04,17,15,36,23.70
2021,04,17,15,37,23.70
2021,04,17,15,38,23.80
2021,04,17,15,39,23.80
2021,04,17,15,40,23.80
2021,04,17,15,41,23.80
2021,04,17,15,42,23.80
2021,04,17,15,43,23.90
2021,04,17,15,44,23.90
2021,04,17,15,45,23.90
2021,04,17,15,46,23.90
2021,04,17,15,47,23.90
2021,04,17,15,48,24.00
2021,04,17,15,49,24.00
2021,04,17,15,50,24.00
2021,04,17,15,51,24.00
2021,04,17,15,52,24.10
2021,04,17,15,53,24.10
2021,04,17,15,54,24.10
2021,04,17,15,55,24.10
2021,04,17,15,56,24.10
2021,04,17,15,57,24.10
2021,04,17,15,58,24.10
2021,04,17,15,59,24.10
2021,04,17,16,00,24.10
2021,04,17,16,01,24.10
2021,04,17,16,02,24.10
2021,04,17,16,03,24.10
2021,04,17,16,04,24.10
2021,04,17,16,05,24.10
2021,04,17,16,06,24.10
2021,04,17,16,07,24.10
2021,04,17,16,08,24.10
2021,04,17,16,09,24.10
2021,04,17,17,04,23.90
2021,04,17,17,05,23.90
2021,04,17,17,06,23.90
2021,04,17,17,07,23.90
2021,04,17,17,08,23.90
2021,04,17,17,09,23.90
2021,04,17,17,10,23.90
2021,04,17,17,11,24.00
2021,04,17,17,12,24.00
2021,04,17,17,13,24.00
2021,04,17,17,14,24.00
2021,04,17,17,15,24.00
2021,04,17,17,16,23.90
2021,04,17,17,17,23.90
2021,04,17,17,18,24.00
2021,04,17,17,19,24.00
2021,04,17,17,20,24.00
2021,04,17,17,21,24.00
2021,04,17,17,22,24.00
2021,04,17,17,23,24.10
2021,04,17,17,24,24.10
2021,04,17,17,25,24.00
2021,04,17,17,26,24.00
2021,04,17,17,27,23.90
2021,04,17,17,28,23.90
2021,04,17,17,29,23.90
2021,04,17,17,30,23.90
2021,04,17,17,31,23.90
2021,04,17,17,32,23.90
2021,04,17,17,33,23.90
2021,04,17,17,34,23.90
2021,04,17,17,35,23.90
2021,04,17,17,36,23.90
2021,04,17,17,37,24.00
2021,04,17,17,38,24.00
2021,04,17,17,39,24.00
2021,04,17,17,40,23.90
2021,04,17,17,41,23.90
2021,04,17,17,42,23.90
2021,04,17,17,43,23.90
2021,04,17,17,44,23.90
2021,04,17,17,45,23.90
2021,04,17,17,46,23.90
2021,04,17,17,47,23.90
2021,04,17,17,48,23.80
2021,04,17,17,49,23.80
2021,04,17,17,50,23.80
2021,04,17,17,51,23.80
2021,04,17,17,52,23.80
2021,04,17,17,53,23.80
2021,04,17,17,54,23.80
2021,04,17,17,55,23.70
2021,04,17,17,56,23.70
2021,04,17,17,57,23.70
2021,04,17,17,58,23.70
2021,04,17,17,59,23.70
2021,04,17,18,00,23.80
2021,04,17,18,01,23.80
2021,04,17,18,02,23.80
2021,04,17,18,03,23.80
2021,04,17,18,04,23.70
2021,04,17,18,05,23.70
2021,04,17,18,06,23.70
2021,04,17,18,07,23.70
2021,04,17,18,08,23.70
2021,04,17,18,09,23.70
2021,04,17,18,10,23.70
2021,04,17,18,11,23.70
2021,04,17,18,12,23.80
2021,04,17,18,13,23.80
2021,04,17,18,14,23.80
2021,04,17,18,15,23.80
2021,04,17,18,16,23.80
2021,04,17,18,17,23.80
2021,04,17,18,18,23.80
2021,04,17,18,19,23.80
2021,04,17,18,20,23.80
2021,04,17,18,21,23.80
2021,04,17,18,22,23.80
2021,04,17,18,23,23.80
2021,04,17,18,24,23.80
2021,04,17,18,25,23.70
2021,04,17,18,26,23.70
2021,04,17,18,27,23.70
2021,04,17,18,28,23.70
2021,04,17,18,29,23.60
2021,04,17,18,30,23.60
2021,04,17,18,31,23.60
2021,04,17,18,32,23.60
2021,04,17,18,33,23.60
2021,04,17,18,34,23.60
2021,04,17,18,35,23.70
2021,04,17,18,36,23.70
2021,04,17,18,37,23.70
2021,04,17,18,38,23.60
2021,04,17,18,39,23.60
2021,04,17,18,40,23.60
2021,04,17,18,41,23.60
2021,04,17,18,42,23.60
2021,04,17,18,43,23.60
2021,04,17,18,44,23.50
2021,04,17,18,45,23.50
2021,04,17,18,46,23.50
2021,04,17,18,47,23.50
2021,04,17,18,48,23.50
2021,04,17,18,49,23.50
2021,04,17,18,50,23.50
2021,04,17,18,51,23.50
2021,04,17,18,52,23.50
2021,04,17,18,53,23.50
2021,04,17,18,54,23.50
2021,04,17,18,55,23.50
2021,04,17,18,56,23.50
2021,04,17,18,57,23.40
2021,04,17,18,58,23.40
2021,04,17,18,59,23.40
2021,04,17,19,00,23.40
2021,04,17,19,01,23.40
2021,04,17,19,02,23.30
2021,04,17,19,03,23.30
2021,04,17,19,04,23.30
2021,04,17,19,05,23.20
2021,04,17,19,06,23.20
2021,04,17,19,07,23.20